Location: Newark
(49.8348°N, 24.0280°E)
Time: 20:45:25
(UTC+00:00)

S-56A Canister/Altair - Pass Details

Date: 30 January 2020
Orbit: 633 x 2499 km, 38.9° (Epoch: 19 February)

Event Time Altitude Azimuth Distance (km) Brightness Sun altitude
Rises 17:59:20 0° 241° (WSW) 4,550 12.3 -26.6°
Reaches altitude 10° 18:03:14 10° 231° (SW) 3,239 11.3 -27.2°
Maximum altitude 18:09:31 29° 176° (S) 1,713 9.1 -28.2°
Enters shadow 18:09:33 29° 175° (S) 1,711 9.1 -28.2°
Drops below altitude 10° 18:14:12 10° 117° (ESE) 2,368 - -29.0°
Sets 18:16:37 0° 105° (ESE) 3,147 - -29.4°
